Weather History for Mount Pleasant, SC

Change the Weather History Date:

Sunday, September 29, 2013

  Actual Average (KCHS) Record (KCHS)
Temperature  
Mean Temperature 68 °F 72 °F  
Max Temperature 78 °F 82 °F 92 °F (1941)
Min Temperature 57 °F 63 °F 46 °F (1942)
Degree Days  
Heating Degree Days 0 0  
Month to date heating degree days 0  
Since 1 July heating degree days 0  
Cooling Degree Days 2 8  
Month to date cooling degree days 326  
Year to date cooling degree days 2131  
Growing Degree Days 18 (Base 50)    
Moisture  
Dew Point 59 °F    
Average Humidity 79    
Maximum Humidity 100    
Minimum Humidity 47    
Precipitation  
Precipitation 0.00 in 0.17 in 3.82 in (1959)
Month to date precipitation 5.93  
Year to date precipitation 41.57  
Sea Level Pressure  
Sea Level Pressure 30.07 in    
Wind  
Wind Speed 5 mph (North)    
Max Wind Speed 10 mph    
Max Gust Speed 16 mph    
Visibility 10 miles    
Events      
T = Trace of Precipitation, MM = Missing Value Source: NWS Daily Summary

Daily Weather History Graph

Daily Weather History Graph

Search for Another Location

Airport:

Trip Planner

Search our weather history database for the weather conditions in past years. The results will help you decide how hot, cold, wet, or windy it might be!

Date:

Astronomy

Sep. 29, 2013 Rise Set
Actual Time 7:12 AM EDT 7:06 PM EDT
Civil Twilight 6:47 AM EDT 7:30 PM EDT
Nautical Twilight 6:18 AM EDT 7:59 PM EDT
Astronomical Twilight 5:50 AM EDT 8:28 PM EDT
Moon 2:06 AM EDT (9/29) 3:48 PM EDT (9/29)
Length of Visible Light 12h 43m
Length of Day
11h 53m
Waning Crescent, 27% of the Moon is Illuminated
Sep 29
Waning Crescent
Oct 4
New
Oct 11
First Quarter
Oct 18
Full
Oct 26
Last Quarter

Hourly Weather History & Observations

Time (EDT) Temp. Dew Point Humidity Pressure Visibility Wind Dir Wind Speed Gust Speed Precip Events Conditions
12:15 AM 62.6 °F 60.8 °F 94% 30.10 in 10.0 mi North 3.5 mph - N/A   Clear
12:35 AM 62.6 °F 60.8 °F 94% 30.10 in 10.0 mi North 3.5 mph - N/A   Clear
12:55 AM 62.6 °F 60.8 °F 94% 30.11 in 10.0 mi North 5.8 mph - N/A   Clear
1:15 AM 62.6 °F 59.0 °F 88% 30.10 in 10.0 mi North 5.8 mph - N/A   Clear
1:35 AM 62.6 °F 59.0 °F 88% 30.10 in 10.0 mi North 3.5 mph - N/A   Clear
1:55 AM 62.6 °F 59.0 °F 88% 30.10 in 10.0 mi North 4.6 mph - N/A   Partly Cloudy
2:15 AM 62.6 °F 59.0 °F 88% 30.09 in 10.0 mi North 4.6 mph - N/A   Partly Cloudy
2:35 AM 62.6 °F 59.0 °F 88% 30.09 in 10.0 mi North 4.6 mph - N/A   Partly Cloudy
2:55 AM 62.6 °F 59.0 °F 88% 30.08 in 10.0 mi North 4.6 mph - N/A   Clear
3:15 AM 62.6 °F 60.8 °F 94% 30.08 in 10.0 mi NNE 5.8 mph - N/A   Clear
3:35 AM 60.8 °F 60.8 °F 100% 30.08 in 10.0 mi North 5.8 mph - N/A   Clear
3:55 AM 60.8 °F 60.8 °F 100% 30.07 in 10.0 mi NNE 5.8 mph - N/A   Clear
4:15 AM 60.8 °F 59.0 °F 94% 30.07 in 10.0 mi North 5.8 mph - N/A   Clear
4:35 AM 60.8 °F 60.8 °F 100% 30.07 in 10.0 mi North 5.8 mph - N/A   Clear
4:55 AM 60.8 °F 59.0 °F 94% 30.07 in 10.0 mi NNE 4.6 mph - N/A   Clear
5:15 AM 60.8 °F 59.0 °F 94% 30.08 in 10.0 mi NNE 4.6 mph - N/A   Clear
5:35 AM 60.8 °F 59.0 °F 94% 30.08 in 10.0 mi North 6.9 mph - N/A   Clear
5:55 AM 60.8 °F 59.0 °F 94% 30.08 in 10.0 mi North 5.8 mph - N/A   Clear
6:15 AM 60.8 °F 59.0 °F 94% 30.08 in 10.0 mi North 5.8 mph - N/A   Clear
6:35 AM 60.8 °F 59.0 °F 94% 30.09 in 10.0 mi North 6.9 mph - N/A   Clear
6:55 AM 59.0 °F 59.0 °F 100% 30.09 in 10.0 mi North 5.8 mph - N/A   Clear
7:15 AM 59.0 °F 59.0 °F 100% 30.09 in 10.0 mi North 6.9 mph - N/A   Partly Cloudy
7:35 AM 59.0 °F 59.0 °F 100% 30.09 in 10.0 mi North 5.8 mph - N/A   Clear
7:55 AM 59.0 °F 59.0 °F 100% 30.10 in 10.0 mi NNE 4.6 mph - N/A   Clear
8:15 AM 59.0 °F 59.0 °F 100% 30.10 in 10.0 mi North 6.9 mph - N/A   Partly Cloudy
8:35 AM 60.8 °F 59.0 °F 94% 30.10 in 10.0 mi North 4.6 mph - N/A   Clear
8:55 AM 62.6 °F 59.0 °F 88% 30.10 in 10.0 mi North 6.9 mph - N/A   Clear
9:15 AM 62.6 °F 59.0 °F 88% 30.10 in 10.0 mi North 6.9 mph - N/A   Clear
9:35 AM 64.4 °F 59.0 °F 83% 30.09 in 10.0 mi NNE 8.1 mph - N/A   Clear
9:55 AM 66.2 °F 57.2 °F 73% 30.10 in 10.0 mi North 5.8 mph - N/A   Clear
10:15 AM 68.0 °F 57.2 °F 68% 30.10 in 10.0 mi NNE 9.2 mph - N/A   Clear
10:35 AM 69.8 °F 57.2 °F 64% 30.10 in 10.0 mi NNE 6.9 mph - N/A   Clear
10:55 AM 71.6 °F 57.2 °F 60% 30.10 in 10.0 mi North 10.4 mph - N/A   Clear
11:15 AM 71.6 °F 57.2 °F 60% 30.10 in 10.0 mi NNE 8.1 mph - N/A   Clear
11:35 AM 73.4 °F 57.2 °F 57% 30.10 in 10.0 mi North 6.9 mph - N/A   Clear
11:55 AM 73.4 °F 57.2 °F 57% 30.10 in 10.0 mi North 10.4 mph - N/A   Clear
12:15 PM 73.4 °F 57.2 °F 57% 30.09 in 10.0 mi NNE 8.1 mph - N/A   Clear
12:35 PM 75.2 °F 55.4 °F 50% 30.09 in 10.0 mi North 9.2 mph 16.1 mph N/A   Clear
12:55 PM 75.2 °F 55.4 °F 50% 30.08 in 10.0 mi NE 5.8 mph - N/A   Clear
1:15 PM 75.2 °F 55.4 °F 50% 30.07 in 10.0 mi NNE 9.2 mph - N/A   Clear
1:35 PM 75.2 °F 55.4 °F 50% 30.07 in 10.0 mi North 5.8 mph - N/A   Clear
1:55 PM 75.2 °F 55.4 °F 50% 30.05 in 10.0 mi North 5.8 mph - N/A   Clear
2:15 PM 75.2 °F 55.4 °F 50% 30.04 in 10.0 mi NE 8.1 mph - N/A   Clear
2:35 PM 75.2 °F 57.2 °F 53% 30.04 in 10.0 mi North 8.1 mph - N/A   Partly Cloudy
2:55 PM 75.2 °F 57.2 °F 53% 30.03 in 10.0 mi Calm Calm - N/A   Partly Cloudy
3:15 PM 75.2 °F 57.2 °F 53% 30.03 in 10.0 mi NNE 8.1 mph - N/A   Partly Cloudy
3:35 PM 77.0 °F 57.2 °F 50% 30.03 in 10.0 mi North 6.9 mph - N/A   Partly Cloudy
3:55 PM 77.0 °F 57.2 °F 50% 30.02 in 10.0 mi NW 4.6 mph - N/A   Partly Cloudy
4:15 PM 78.8 °F 57.2 °F 47% 30.02 in 10.0 mi Calm Calm - N/A   Partly Cloudy
4:35 PM 78.8 °F 57.2 °F 47% 30.02 in 10.0 mi North 6.9 mph - N/A   Scattered Clouds
4:55 PM 75.2 °F 57.2 °F 53% 30.02 in 10.0 mi Calm Calm - N/A   Partly Cloudy
5:15 PM 75.2 °F 57.2 °F 53% 30.02 in 10.0 mi North 4.6 mph - N/A   Partly Cloudy
5:35 PM 77.0 °F 57.2 °F 50% 30.02 in 10.0 mi NNW 5.8 mph - N/A   Mostly Cloudy
5:55 PM 75.2 °F 57.2 °F 53% 30.02 in 10.0 mi Calm Calm - N/A   Partly Cloudy
6:15 PM 75.2 °F 57.2 °F 53% 30.02 in 10.0 mi North 5.8 mph - N/A   Scattered Clouds
6:35 PM 73.4 °F 57.2 °F 57% 30.02 in 10.0 mi North 5.8 mph - N/A   Mostly Cloudy
6:55 PM 69.8 °F 60.8 °F 73% 30.03 in 10.0 mi Calm Calm - N/A   Partly Cloudy
7:15 PM 66.2 °F 60.8 °F 83% 30.03 in 10.0 mi Calm Calm - N/A   Partly Cloudy
7:35 PM 66.2 °F 60.8 °F 83% 30.03 in 10.0 mi Calm Calm - N/A   Clear
7:55 PM 64.4 °F 60.8 °F 88% 30.03 in 10.0 mi Calm Calm - N/A   Clear
8:15 PM 62.6 °F 60.8 °F 94% 30.03 in 10.0 mi Calm Calm - N/A   Clear
8:35 PM 62.6 °F 60.8 °F 94% 30.04 in 10.0 mi Calm Calm - N/A   Clear
8:55 PM 62.6 °F 60.8 °F 94% 30.04 in 10.0 mi Calm Calm - N/A   Clear
9:15 PM 60.8 °F 60.8 °F 100% 30.05 in 10.0 mi Calm Calm - N/A   Clear
9:35 PM 60.8 °F 60.8 °F 100% 30.05 in 10.0 mi Calm Calm - N/A   Clear
9:55 PM 60.8 °F 60.8 °F 100% 30.05 in 10.0 mi Calm Calm - N/A   Partly Cloudy
10:15 PM 60.8 °F 60.8 °F 100% 30.05 in 10.0 mi Calm Calm - N/A   Clear
10:35 PM 60.8 °F 59.0 °F 94% 30.04 in 10.0 mi Calm Calm - N/A   Clear
10:55 PM 59.0 °F 59.0 °F 100% 30.04 in 10.0 mi Calm Calm - N/A   Clear
11:15 PM 59.0 °F 59.0 °F 100% 30.05 in 10.0 mi Calm Calm - N/A   Clear
11:35 PM 57.2 °F 57.2 °F 100% 30.04 in 10.0 mi Calm Calm - N/A   Clear
11:55 PM 57.2 °F 57.2 °F 100% 30.04 in 10.0 mi Calm Calm - N/A   Clear